www.pogodaiklimat.ru

Погода и климат >> Архив погоды >> Индонезия >> Матарам


ПОГОДА в Матараме

  • Прогноз погоды в Матараме
  • Монитор погоды в Матараме

АРХИВ ПОГОДЫ в Матараме

Время (UTC), дата Ветер
(напр.,м/с)
 
Видим.   Явления Облачность Т
(С)
Тd
(С)
f
(%)
Тe
(С)
Тes
(С)
Комфортность P
(гПа)
Po
(гПа)
Тmin
(С)
Tmax
(С)
R
(мм)
R24
(мм)
S
(см)
03 18.06 ЮВ 4 9000 м 4/3 480 м
[Cu hum Ac trans Ci fib]
+28.2 +20.4 63 +35 +41 очень
душно
1014.1 1002.5
06 18.06 ЮВ 5 9000 м 6/5 480 м
[Cu hum Ac trans Ci fib]
+28.6 +21.2 64 +36 +39 очень
душно
1011.7 1000.1
09 18.06 ЮВ 5 9000 м 5/4 480 м
[Cu hum Ac trans Ci fib]
+27.6 +21.2 68 +35 +35 очень
душно
1011.2 999.6
12 18.06 штиль 0 7000 м 5/4 480 м
[Cu hum Ac trans Ci fib]
+23.5 +21.7 90 +30 +30 очень
душно
1013.0 1001.4 +29.6
15 18.06 штиль 0 7000 м 6/3 480 м
[Cu hum Ac trans Ci fib]
+21.9 +21.0 95 +28 +28 душно 1013.4 1001.8
18 18.06 штиль 0 6000 м 8/3 480 м
[Cu hum Ac trans Ci fib]
+21.2 +20.6 96 +26 +26 душно 1012.9 1001.3
21 18.06 штиль 0 3000 м зарница 3/1 480 м
[Cu hum Ac trans Ci fib]
+19.3 +18.8 97 +21 +21 комфорт 1012.8 1001.2
00 19.06 штиль 0 6000 м 3/3 480 м
[Cu hum Ac trans Ci fib]
+22.8 +21.3 91 +30 +33 очень
душно
1014.1 1002.5 +18.6
03 19.06 ЮВ 4 9000 м 3/3 480 м
[Cu hum Ac trans Ci fib]
+28.8 +20.6 61 +36 +43 очень
душно
1013.2 1001.6
06 19.06 ЮВ 4 7000 м 3/3 480 м
[Cu hum Ac trans Ci fib]
+28.8 +20.6 61 +36 +41 очень
душно
1011.1 999.5
09 19.06 Ю 3 9000 м 4/4 480 м
[Cu hum Ac trans Ci fib]
+26.8 +21.6 73 +34 +35 очень
душно
1011.5 999.9
12 19.06 штиль 0 7000 м 3/3 480 м
[Cu hum Ac trans Ci fib]
+23.4 +21.3 88 +31 +31 очень
душно
1012.6 1001.0 +29.4
15 19.06 штиль 0 5000 м дымка 4/3 480 м
[Cu hum Ac trans Ci fib]
+21.4 +20.5 95 +27 +27 душно 1013.3 1001.7
18 19.06 штиль 0 2000 м дымка 4/3 480 м
[Cu hum Ac trans Ci fib]
+20.2 +19.9 98 +24 +24 комфорт 1012.9 1001.3
21 19.06 штиль 0 4000 м дымка 4/3 480 м
[Cu hum Ac trans Ci fib]
+20.6 +20.3 98 +25 +25 комфорт 1012.9 1001.3
00 20.06 штиль 0 8000 м 4/3 480 м
[Cu hum Ac trans Ci fib]
+23.5 +22.5 94 +31 +33 очень
душно
1014.2 1002.6 +19.9
03 20.06 ЮВ 5 9000 м 5/5 480 м
[Cu hum Ac trans Ci fib]
+28.3 +20.3 62 +35 +39 очень
душно
1014.0 1002.4
06 20.06 В 4 9000 м 5/4 480 м
[Cu hum Ac trans Ci fib]
+30.0 +20.1 55 +36 +41 очень
душно
1011.8 1000.2
09 20.06 ЮВ 5 9000 м 4/3 480 м
[Cu hum Ac trans Ci fib]
+28.0 +18.8 57 +33 +33 очень
душно
1011.0 999.4
12 20.06 штиль 0 7000 м 3/1 480 м
[Cu hum Ac trans Ci fib]
+23.8 +20.8 83 +30 +30 очень
душно
1012.5 1000.9 +30.2
15 20.06 штиль 0 7000 м 3/3 480 м
[Cu hum As op Ci fib]
+21.0 +20.1 95 +26 +26 душно 1012.7 1001.1
18 20.06 штиль 0 4000 м дымка 3/3 480 м
[Cu hum As op Ci fib]
+20.5 +19.2 92 +24 +24 комфорт 1011.6 1000.0
21 20.06 штиль 0 6000 м 3/3 480 м
[Cu hum As op Ci fib]
+19.3 +18.2 93 +21 +21 комфорт 1011.9 1000.3
00 21.06 З 1 7000 м 3/1 480 м
[Cu hum Ac trans Ci fib]
+21.4 +20.2 93 +27 +29 душно 1013.2 1001.6 +18.2
03 21.06 В 3 8000 м 3/1 480 м
[Cu hum Ac trans Ci fib]
+28.5 +20.4 62 +35 +46 очень
душно
1012.1 1000.5
06 21.06 ЮВ 3 8000 м 5/3 480 м
[Cu hum Ac trans Ci fib]
+30.1 +20.2 55 +37 +43 очень
душно
1009.5 998.0
09 21.06 ЮВ 3 8000 м 6/4 480 м
[Cu hum Ac trans Ci fib]
+27.0 +21.4 71 +34 +35 очень
душно
1009.8 998.3
12 21.06 штиль 0 7000 м 5/4 480 м
[Cu hum As op Ci fib]
+23.7 +21.3 86 +30 +30 очень
душно
1011.9 1000.4 +31.0
15 21.06 штиль 0 7000 м 4/3 480 м
[Cu hum As op Ci fib]
+21.8 +20.6 93 +28 +28 душно 1012.5 1000.9
18 21.06 штиль 0 6000 м 4/3 480 м
[Cu hum As op Ci fib]
+21.1 +20.2 95 +26 +26 душно 1011.9 1000.4
21 21.06 штиль 0 700 м туман 3/1 480 м
[Cu hum As op Ci fib]
+20.6 +20.4 99 +25 +25 комфорт 1011.5 999.9
00 22.06 штиль 0 5000 м дымка 3/1 480 м
[Cu hum As trans Ci fib]
+22.5 +21.6 95 +30 +33 очень
душно
1012.7 1001.1 +19.4
03 22.06 В 2 7000 м 8/6 480 м
[Cu hum As op Cs]
+28.4 +21.5 66 +36 +41 очень
душно
1011.5 999.9
06 22.06 ЮВ 3 8000 м 6/4 480 м
[Cu hum As op Cs]
+29.2 +21.2 62 +37 +42 очень
душно
1009.6 998.0
09 22.06 ЮВ 3 8000 м 5/3 480 м
[Cu hum As op Cs]
+27.0 +21.4 71 +34 +35 очень
душно
1009.7 998.1
12 22.06 штиль 0 8000 м 6/3 480 м
[Cu hum Ac trans Ci fib]
+23.7 +21.3 86 +30 +30 очень
душно
1011.3 999.7 +30.0
15 22.06 штиль 0 6000 м 4/1 480 м
[Cu hum Ac trans Ci fib]
+21.6 +20.7 95 +27 +27 душно 1011.7 1000.2
18 22.06 штиль 0 3000 м дымка 4/1 480 м
[Cu hum Ac trans Ci fib]
+20.0 +19.7 98 +23 +23 комфорт 1011.5 999.9
21 22.06 штиль 0 700 м туман 3/1 480 м
[Cu hum Ac trans Ci fib]
+19.4 +19.1 98 +22 +22 комфорт 1011.8 1000.2
00 23.06 штиль 0 8000 м 4/1 480 м
[Cu hum Ac trans Ci fib]
+22.2 +21.3 95 +29 +32 очень
душно
1013.3 1001.7 +18.4
03 23.06 ЮВ 3 9000 м 5/4 480 м
[Cu hum Ac trans Ci fib]
+29.2 +19.8 57 +35 +42 очень
душно
1013.3 1001.7
06 23.06 ЮВ 6 9000 м 6/5 480 м
[Cu hum Ac trans Ci fib]
+30.0 +20.8 58 +37 +39 очень
душно
1011.1 999.6
09 23.06 ЮВ 6 9000 м 3/1 480 м
[Cu hum Ac trans Ci fib]
+28.0 +20.5 64 +35 +35 очень
душно
1010.7 999.1
12 23.06 штиль 0 7000 м 4/3 480 м
[Cu hum Ac trans Ci fib]
+23.2 +20.8 86 +31 +31 очень
душно
1012.5 1000.9 +31.5
15 23.06 штиль 0 6000 м 4/3 480 м
[Cu hum Ac trans Ci fib]
+21.8 +20.9 95 +28 +28 душно 1013.5 1001.9
18 23.06 штиль 0 6000 м 4/3 480 м
[Cu hum Ac trans Ci fib]
+20.5 +20.2 98 +25 +25 комфорт 1013.2 1001.5
21 23.06 штиль 0 500 м туман 3/1 480 м
[Cu hum Ac trans Ci fib]
+20.0 +20.0 100 +23 +23 комфорт 1013.5 1001.8
00 24.06 штиль 0 5000 м дымка {гроза} 3/1 480 м
[Cu hum Ac trans Ci fib]
+21.6 +20.4 93 +27 +30 душно 1014.6 1002.9 +18.6
03 24.06 В 4 8000 м 3/1 480 м
[Cu hum Ac trans Ci fib]
+29.0 +20.0 58 +35 +44 очень
душно
1014.2 1002.6
06 24.06 В 3 8000 м 3/1 480 м
[Cu hum Ac trans Ci fib]
+31.0 +19.0 49 +36 +45 очень
душно
1012.0 1000.4
09 24.06 ЮВ 5 8000 м 3/1 480 м
[Cu hum Ac trans Ci fib]
+27.8 +21.9 70 +36 +36 очень
душно
1012.1 1000.5
12 24.06 штиль 0 7000 м 5/4 480 м
[Cu hum Ac trans Ci fib]
+24.6 +22.4 88 +32 +32 очень
душно
1014.1 1002.4 +31.4
15 24.06 штиль 0 4500 м дымка 5/5 480 м
[Cu hum Ac trans Ci fib]
+22.2 +21.3 95 +29 +29 очень
душно
1014.8 1003.2
18 24.06 штиль 0 3000 м дымка 5/4 480 м
[Cu hum Ac trans Ci fib]
+21.0 +20.7 98 +26 +26 душно 1014.0 1002.4
21 24.06 штиль 0 3000 м дымка 5/4 480 м
[Cu hum Ac trans Ci fib]
+19.6 +19.0 96 +22 +22 комфорт 1014.4 1002.8
00 25.06 штиль 0 5000 м 3/1 480 м
[Cu hum Ac trans Ci fib]
+22.2 +21.1 93 +29 +32 очень
душно
1015.7 1004.1 +18.9

 

Местоположение метеостанции Матарам (Индонезия): широта -8.53 долгота 116.06 высота над уровнем моря 3 м.

В архиве по умолчанию представлена погода в Матараме за последнюю неделю. Архивные данные за месяц целиком и за предыдущие месяцы, начиная с января 2011 года, Вы можете получить, выбрав интересующий диапазон дат из раскрывающегося списка и нажав кнопку "Ввод!".


*Определитесь, кто Вы:
робот инопланетянин человек

Внимание! Время в таблицах - всемирное. Для получения местного времени необходимо прибавить поправку, которая равна 8 ч.

Смотрите также архив погоды в соседних городах и на ближайших метеорологических станциях:

Погода в Денпасаре (Индонезия) (102 км)
Погода в Сумбава-Бесаре (Индонезия) (149 км)
Погода в Банюванги (Индонезия) (188 км)
Погода в Калиянджете (Индонезия) (284 км)
Погода в Биме (Индонезия) (290 км)
Погода в Сурабая Геданган (Индонезия) (297 км)
Погода в Аэропорту Джуанда (Индонезия) (386 км)
Погода в Сурабая Перак (Индонезия) (397 км)
Погода в Сангкапуре (Индонезия) (482 км)
Погода в Рутенге (Индонезия) (483 км)

Пояснения к столбцам:

Ветер - указаны скорость ветра в м/с - средняя за 10 мин, порывы в срок и между сроками (в фигурных скобках) и направление, откуда дует ветер: С - северный, СВ - северо-восточный, В - восточный, ЮВ - юго-восточный, Ю - южный, ЮЗ - юго-западный, З - западный, СЗ - северо-западный.
Видимость - горизонтальная дальность видимости в метрах или километрах. При видимости от 1 до 10 км при отсутствии осадков обычно наблюдается дымка, при ухудшении видимости до 1 км и менее - туман. В сухую погоду видимость может ухудшаться дымом, пылью или мглою.
Явления - указаны атмосферные явления, наблюдавшиеся в срок или в последний час перед сроком; фигурными скобками обозначены явления, наблюдавшиеся между сроками (за 1-3 часа до срока); квадратными скобками обозначены град или гололедные отложения с указанием их диаметра в мм.
Облачность - указаны через наклонную черту общая и нижняя облачность в баллах и высота нижней границы облаков в метрах; квадратными скобками обозначены формы облаков: Ci - перистые, Cs - перисто-слоистые, Cc - перисто-кучевые, Ac - высококучевые, As - высокослоистые, Sc - слоисто-кучевые, Ns - слоисто-дождевые, Cu - кучевые, Cb - кучево-дождевые. Подробнее классификацию облаков см. в Атласе облаков (PDF).
T - Температура воздуха - температура, измеренная на высоте 2 м над землей.
Td - Температура точки росы - температура, при понижении до которой содержащийся в воздухе водяной пар достигнет насыщения.
f - Относительная влажность воздуха - влажноcть воздуха, измеренная на высоте 2 м над землей.
Te - Эффективная температура - температура, которую ощущает одетый по сезону человек в тени. Характеристика душности погоды. При расчете учитывается влияние влажности воздуха и скорости ветра на теплоощущения человека.
Tes - Эффективная температура на солнце - температура, которую ощущает человек, с поправкой на солнечный нагрев. Характеристика знойности погоды. Зависит от высоты солнца над горизонтом, облачности и скорости ветра. Ночью, в пасмурную погоду, а также при ветре 12 м/с и более поправка равна нулю.
P - Атмосферное давление - приведенное к уровню моря атмосферное давление.
Po - Атмосферное давление - измеренное на уровне метеостанции атмосферное давление.
Tmin - Минимальная температура - минимум температуры воздуха на высоте 2 м над землей.
Tmax - Максимальная температура - максимум температуры воздуха на высоте 2 м над землей.
R - Количество осадков - Количество выпавших осадков за период времени, мм. При наведении курсора мыши на число - период времени, за который выпало указанное количество осадков.
R24 - Количество осадков - Количество выпавших осадков за 24 часа, мм.
S - Снежный покров - Высота снежного покрова, см. При наведении курсора мыши на число - состояние снежного покрова и степень покрытия местности в баллах.